period_start,C,m1,H,J0,J1,J2,J3,J4,J5,JA,JB,JC,JD,JJ,JK,JN,#
2018-03-18 00:03:52,0.01,2.44,0.00,12.81,16.14,19.60,14.68,47.83,1029.64,2067.99,2608.97,2531.00,2890.02,600.24,625.34,23.40,0000 0000 0000 0000 000000
2018-03-18 00:08:53,0.02,2.44,0.00,12.79,16.14,19.63,14.75,47.75,1029.69,2067.99,2608.16,2531.00,2889.99,600.22,625.71,23.45,0000 0000 0000 0000 000000
2018-03-18 00:13:54,0.02,2.44,0.00,12.82,16.14,19.62,14.68,47.83,1029.77,2068.00,2607.98,2530.84,2889.44,600.09,625.34,23.50,0000 0000 0000 0000 000000
2018-03-18 00:18:56,0.04,2.44,0.00,12.82,16.13,19.65,14.69,47.81,1029.79,2068.00,2607.54,2530.24,2889.01,600.19,625.49,23.55,0000 0000 0000 0000 000000
2018-03-18 00:23:57,0.01,2.45,0.00,12.82,16.12,19.71,14.67,47.76,1029.80,2068.00,2606.92,2530.01,2888.96,599.90,625.07,23.60,0000 0000 0000 0000 000000
2018-03-18 00:28:58,0.03,2.45,0.00,12.83,16.12,19.64,14.64,47.71,1029.79,2067.99,2606.10,2529.99,2888.60,599.99,625.28,23.65,0000 0000 0000 0000 000000
2018-03-18 00:34:00,0.03,2.45,0.00,12.83,16.12,19.61,14.69,47.67,1029.79,2068.01,2605.58,2529.91,2888.04,600.10,625.33,23.70,0000 0000 0000 0000 000000
2018-03-18 00:39:01,0.03,2.45,0.00,12.84,16.12,19.65,14.58,47.72,1029.71,2068.00,2605.01,2529.29,2887.99,599.63,624.72,23.75,0000 0000 0000 0000 000000
2018-03-18 00:44:02,0.04,2.45,0.00,12.84,16.12,19.63,14.71,47.68,1029.69,2068.00,2604.49,2529.01,2887.44,600.15,625.47,23.80,0000 0000 0000 0000 000000
2018-03-18 00:49:03,0.01,2.45,0.00,12.84,16.12,19.63,14.70,47.57,1029.65,2068.00,2603.99,2528.99,2887.01,599.96,625.11,23.85,0000 0000 0000 0000 000000
2018-03-18 00:54:04,0.03,2.45,0.00,12.87,16.12,19.56,14.64,47.67,1029.70,2068.01,2603.21,2528.84,2886.96,599.86,624.95,23.90,0000 0000 0000 0000 000000
2018-03-18 00:59:06,0.05,2.46,0.00,12.87,16.12,19.55,14.60,47.65,1029.70,2068.00,2602.60,2528.28,2886.56,600.07,625.20,23.95,0000 0000 0000 0000 000000
2018-03-18 01:04:07,0.02,2.46,0.00,12.89,16.12,19.57,14.62,47.61,1029.77,2068.02,2601.89,2528.01,2886.05,599.99,625.11,24.00,0000 0000 0000 0000 000000
2018-03-18 01:09:08,0.02,2.46,0.00,12.90,16.12,19.57,14.68,47.71,1029.73,2068.03,2601.07,2527.99,2885.98,599.98,625.04,24.05,0000 0000 0000 0000 000000
2018-03-18 01:14:09,0.03,2.46,0.00,12.92,16.13,19.56,14.64,47.73,1029.71,2068.04,2600.85,2527.91,2885.45,600.19,625.15,24.10,0000 0000 0000 0000 000000
2018-03-18 01:19:10,0.04,2.46,0.00,12.93,16.14,19.54,14.68,47.65,1029.78,2068.07,2600.07,2527.44,2885.02,600.28,625.29,24.15,0000 0000 0000 0000 000000
2018-03-18 01:24:12,0.03,2.46,0.00,12.96,16.17,19.54,14.62,47.81,1029.79,2068.13,2599.75,2527.04,2884.97,599.73,624.44,24.20,0000 0000 0000 0000 000000
2018-03-18 01:29:13,0.02,2.47,0.00,12.98,16.19,19.55,14.65,47.79,1029.78,2068.05,2599.03,2526.95,2884.19,599.67,624.57,24.25,0000 0000 0000 0000 000000
2018-03-18 01:34:14,0.04,2.47,0.00,13.00,16.21,19.53,14.56,47.65,1029.78,2068.01,2598.50,2526.31,2883.98,599.96,624.81,24.30,0000 0000 0000 0000 000000
2018-03-18 01:39:16,0.02,2.47,0.00,13.03,16.23,19.53,14.63,47.90,1029.77,2068.02,2598.01,2526.01,2883.44,599.97,624.83,24.35,0000 0000 0000 0000 000000
2018-03-18 01:44:17,0.02,2.47,0.00,13.05,16.24,19.55,14.55,47.65,1029.80,2068.00,2597.59,2525.99,2883.00,599.96,624.59,24.40,0000 0000 0000 0000 000000
2018-03-18 01:49:18,0.03,2.47,0.00,13.08,16.27,19.59,14.72,47.75,1029.80,2068.00,2597.00,2525.62,2882.62,600.23,624.81,24.46,0000 0000 0000 0000 000000
2018-03-18 01:54:20,0.04,2.47,0.00,13.09,16.29,19.58,14.65,47.86,1029.80,2067.99,2596.40,2525.07,2882.03,600.07,624.69,24.51,0000 0000 0000 0000 000000
2018-03-18 01:59:21,0.00,2.48,0.00,13.12,16.31,19.60,14.57,47.74,1029.80,2067.98,2595.90,2524.99,2881.94,599.89,624.20,24.56,0000 0000 0000 0000 000000
2018-03-18 02:04:23,0.04,2.48,0.00,13.15,16.33,19.65,14.64,47.67,1029.80,2067.98,2595.09,2524.90,2881.28,599.94,624.52,24.61,0000 0000 0000 0000 000000
2018-03-18 02:09:24,0.03,2.48,0.00,13.20,16.35,19.64,14.66,47.79,1029.80,2067.96,2594.80,2524.25,2881.00,599.84,624.26,24.66,0000 0000 0000 0000 000000
2018-03-18 02:14:25,0.02,2.48,0.00,13.23,16.37,19.66,14.71,47.79,1029.80,2067.91,2594.04,2524.01,2880.76,600.28,624.73,24.71,0000 0000 0000 0000 000000
2018-03-18 02:19:26,0.00,2.48,0.00,13.26,16.39,19.69,14.62,47.73,1029.80,2067.66,2593.41,2523.98,2880.05,600.16,624.50,24.76,0000 0000 0000 0000 000000
2018-03-18 02:24:28,0.04,2.48,0.00,13.29,16.42,19.72,14.63,47.71,1029.81,2067.59,2592.90,2523.47,2879.98,599.91,624.26,24.81,0000 0000 0000 0000 000000
2018-03-18 02:29:29,0.01,2.48,0.00,13.34,16.44,19.73,14.66,47.87,1029.83,2067.33,2592.13,2523.03,2879.44,600.29,624.38,24.86,0000 0000 0000 0000 000000
2018-03-18 02:34:31,0.01,2.48,0.00,13.36,16.47,19.75,14.55,47.73,1029.82,2067.19,2591.65,2522.98,2879.01,599.89,623.86,24.91,0000 0000 0000 0000 000000
2018-03-18 02:39:32,0.03,2.48,0.00,13.39,16.49,19.79,14.60,47.73,1029.97,2067.14,2590.98,2522.59,2878.86,600.34,624.42,24.96,0000 0000 0000 0000 000000
2018-03-18 02:44:33,0.04,2.49,0.00,13.43,16.52,19.81,14.70,47.72,1030.14,2067.07,2590.18,2522.05,2878.07,600.60,624.64,25.01,0000 0000 0000 0000 000000
2018-03-18 02:49:34,0.00,2.49,0.00,13.47,16.55,19.83,14.58,47.69,1030.24,2067.02,2589.82,2521.98,2877.95,599.94,624.10,25.06,0000 0000 0000 0000 000000
2018-03-18 02:54:35,0.06,2.49,0.00,13.51,16.58,19.86,14.62,47.79,1030.23,2067.00,2589.05,2521.45,2877.15,599.91,624.00,25.11,0000 0000 0000 0000 000000
2018-03-18 02:59:37,0.02,2.49,0.00,13.54,16.61,19.89,14.57,47.64,1030.29,2067.00,2588.52,2521.02,2876.97,599.83,623.74,25.16,0000 0000 0000 0000 000000
2018-03-18 03:04:38,0.02,2.49,0.00,13.59,16.64,19.92,14.58,47.70,1030.29,2067.00,2587.96,2520.98,2876.32,600.09,624.06,25.21,0000 0000 0000 0000 000000
2018-03-18 03:09:40,0.04,2.49,0.00,13.62,16.68,19.94,14.63,47.73,1030.29,2066.98,2587.17,2520.53,2876.00,599.95,623.76,25.26,0000 0000 0000 0000 000000
2018-03-18 03:14:41,0.05,2.50,0.00,13.66,16.71,19.97,14.60,47.67,1030.29,2066.98,2586.44,2520.03,2875.55,599.86,623.58,25.31,0000 0000 0000 0000 000000
2018-03-18 03:19:42,0.02,2.50,0.00,13.69,16.74,20.00,14.66,47.73,1030.29,2066.95,2585.75,2519.92,2875.00,600.66,624.10,25.36,0000 0000 0000 0000 000000
2018-03-18 03:24:44,0.04,2.50,0.00,13.73,16.78,20.04,14.59,47.73,1030.29,2066.90,2585.01,2519.25,2874.51,600.03,623.58,25.41,0000 0000 0000 0000 000000
2018-03-18 03:29:45,-0.01,2.50,0.00,13.78,16.81,20.07,14.64,47.63,1030.29,2066.46,2584.08,2518.80,2873.74,600.08,623.73,25.46,0000 0000 0000 0000 000000
2018-03-18 03:34:46,0.03,2.50,0.00,13.82,16.84,20.10,14.62,47.67,1030.30,2066.06,2583.10,2518.05,2873.01,600.26,623.76,25.51,0000 0000 0000 0000 000000
2018-03-18 03:39:47,0.04,2.50,0.00,13.87,16.87,20.12,14.60,47.53,1030.29,2066.02,2582.28,2517.81,2872.23,599.82,623.01,25.56,0000 0000 0000 0000 000000
2018-03-18 03:44:49,0.05,2.51,0.00,13.91,16.90,20.16,14.53,47.47,1030.30,2066.00,2581.58,2517.07,2871.80,599.97,623.16,25.61,0000 0000 0000 0000 000000
2018-03-18 03:49:50,0.02,2.51,0.00,13.96,16.93,20.20,14.52,47.54,1030.30,2065.99,2580.89,2516.96,2871.07,599.95,623.09,25.66,0000 0000 0000 0000 000000
2018-03-18 03:54:51,0.05,2.51,0.00,14.01,16.97,20.23,14.58,47.58,1030.33,2065.98,2580.08,2516.34,2870.76,600.07,623.21,25.71,0000 0000 0000 0000 000000
2018-03-18 03:59:53,0.03,2.51,0.00,14.06,16.99,20.26,14.57,47.51,1030.46,2065.97,2579.51,2516.01,2870.04,599.94,622.95,25.76,0000 0000 0000 0000 000000
2018-03-18 04:04:54,0.00,2.51,0.00,14.11,17.02,20.30,14.53,47.54,1030.59,2065.81,2578.92,2515.82,2869.70,599.90,622.82,25.81,0000 0000 0000 0000 000000
2018-03-18 04:09:56,0.01,2.51,0.00,14.16,17.05,20.35,14.56,47.45,1030.68,2065.38,2578.11,2515.08,2869.03,599.82,622.72,25.86,0000 0000 0000 0000 000000
2018-03-18 04:14:57,0.02,2.51,0.00,14.21,17.08,20.38,14.65,47.50,1030.75,2065.13,2577.32,2514.92,2868.44,600.46,623.23,25.91,0000 0000 0000 0000 000000
2018-03-18 04:19:58,0.04,2.52,0.00,14.26,17.12,20.41,14.48,47.38,1030.78,2065.03,2576.68,2514.14,2867.99,600.02,622.80,25.96,0000 0000 0000 0000 000000
2018-03-18 04:24:59,0.02,2.52,0.00,14.31,17.15,20.47,14.58,47.52,1030.78,2065.00,2576.01,2513.99,2867.24,599.85,622.50,26.01,0000 0000 0000 0000 000000
2018-03-18 04:30:01,0.04,2.52,0.00,14.34,17.18,20.49,14.53,47.46,1030.78,2065.00,2575.28,2513.61,2866.98,600.02,622.56,26.06,0000 0000 0000 0000 000000
2018-03-18 04:35:02,0.03,2.52,0.00,14.38,17.21,20.52,14.56,47.44,1030.78,2064.99,2574.74,2513.03,2866.28,600.02,622.40,26.11,0000 0000 0000 0000 000000
2018-03-18 04:40:04,0.01,2.52,0.00,14.42,17.25,20.57,14.55,47.39,1030.78,2064.99,2574.02,2512.98,2865.98,600.02,622.45,26.16,0000 0000 0000 0000 000000
2018-03-18 04:45:05,0.07,2.53,0.00,14.44,17.28,20.61,14.51,47.42,1030.78,2064.98,2573.37,2512.44,2865.36,599.71,622.06,26.21,0000 0000 0000 0000 000000
2018-03-18 04:50:06,0.00,2.53,0.00,14.48,17.31,20.66,14.56,47.40,1030.78,2064.82,2572.69,2512.00,2864.84,600.02,622.34,26.26,0000 0000 0000 0000 000000
2018-03-18 04:55:08,-0.00,2.53,0.00,14.51,17.34,20.69,14.56,47.41,1030.79,2064.39,2572.00,2511.67,2864.08,599.71,621.64,26.31,0000 0000 0000 0000 000000
2018-03-18 05:00:09,0.02,2.53,0.00,14.55,17.38,20.73,14.64,47.46,1030.83,2064.06,2571.26,2511.03,2863.75,599.90,622.02,26.36,0000 0000 0000 0000 000000
2018-03-18 05:05:10,0.03,2.53,0.00,14.59,17.41,20.76,14.55,47.33,1030.80,2064.01,2570.69,2510.83,2863.04,599.81,621.68,26.41,0000 0000 0000 0000 000000
2018-03-18 05:10:12,0.05,2.53,0.00,14.63,17.44,20.79,14.51,47.34,1030.85,2064.00,2569.97,2510.07,2862.47,599.72,621.53,26.46,0000 0000 0000 0000 000000
2018-03-18 05:15:13,0.02,2.53,0.00,14.66,17.47,20.83,14.48,47.34,1030.83,2064.00,2569.18,2509.99,2862.00,599.86,621.92,26.51,0000 0000 0000 0000 000000
2018-03-18 05:20:15,0.06,2.54,0.00,14.70,17.50,20.87,14.55,47.43,1030.82,2063.98,2568.57,2509.31,2861.38,599.86,621.65,26.56,0000 0000 0000 0000 000000
2018-03-18 05:25:16,0.01,2.54,0.00,14.73,17.53,20.89,14.43,47.39,1030.96,2063.97,2567.96,2509.01,2860.99,599.86,621.70,26.61,0000 0000 0000 0000 000000
2018-03-18 05:30:17,0.04,2.54,0.00,14.76,17.56,20.93,14.61,47.46,1031.09,2063.93,2567.14,2508.83,2860.37,599.98,621.68,26.66,0000 0000 0000 0000 000000
2018-03-18 05:35:18,-0.01,2.54,0.00,14.79,17.59,20.98,14.59,47.38,1031.21,2063.59,2566.73,2508.11,2859.99,600.15,621.91,26.71,0000 0000 0000 0000 000000
2018-03-18 05:40:20,-0.01,2.54,0.00,14.82,17.62,21.00,14.54,47.43,1031.17,2063.07,2566.03,2507.99,2859.29,599.94,621.78,26.76,0000 0000 0000 0000 000000
2018-03-18 05:45:21,0.04,2.54,0.00,14.85,17.65,21.04,14.51,47.33,1031.20,2063.04,2565.49,2507.59,2858.99,600.11,621.79,26.81,0000 0000 0000 0000 000000
2018-03-18 05:50:22,0.03,2.54,0.00,14.88,17.68,21.07,14.49,47.28,1031.26,2063.00,2564.85,2507.02,2858.31,599.91,621.59,26.86,0000 0000 0000 0000 000000
2018-03-18 05:55:23,0.02,2.55,0.00,14.90,17.71,21.10,14.49,47.27,1031.26,2063.00,2564.07,2506.87,2857.92,600.23,621.82,26.91,0000 0000 0000 0000 000000
2018-03-18 06:00:24,0.06,2.55,0.00,14.93,17.73,21.12,14.61,47.23,1031.27,2063.00,2563.48,2506.15,2857.18,600.28,621.71,26.96,0000 0000 0000 0000 000000
2018-03-18 06:05:25,0.00,2.55,0.00,14.96,17.76,21.16,14.51,47.31,1031.28,2062.98,2562.94,2505.99,2856.96,599.67,621.25,27.01,0000 0000 0000 0000 000000
2018-03-18 06:10:26,0.06,2.55,0.00,14.99,17.79,21.18,14.51,47.24,1031.30,2062.95,2562.10,2505.59,2856.25,600.11,621.58,27.06,0000 0000 0000 0000 000000
2018-03-18 06:15:27,0.02,2.55,0.00,15.01,17.82,21.21,14.52,47.23,1031.30,2062.89,2561.57,2505.03,2855.99,600.09,621.45,27.11,0000 0000 0000 0000 000000
2018-03-18 06:20:28,-0.03,2.55,0.00,15.04,17.85,21.24,14.51,47.17,1031.31,2062.56,2560.96,2504.96,2855.34,600.21,621.61,27.16,0000 0000 0000 0000 000000
2018-03-18 06:25:30,0.03,2.55,0.00,15.05,17.88,21.28,14.58,47.23,1031.43,2062.24,2560.16,2504.30,2854.89,600.23,621.71,27.21,0000 0000 0000 0000 000000
2018-03-18 06:30:31,0.02,2.55,0.00,15.08,17.91,21.32,14.42,47.24,1031.51,2062.03,2559.52,2504.00,2854.11,599.53,620.96,27.26,0000 0000 0000 0000 000000
2018-03-18 06:35:32,0.04,2.56,0.00,15.09,17.93,21.36,14.53,47.32,1031.62,2062.01,2559.00,2503.55,2853.79,600.08,621.45,27.31,0000 0000 0000 0000 000000
2018-03-18 06:40:33,0.03,2.56,0.00,15.12,17.96,21.36,14.53,47.28,1031.71,2062.00,2558.47,2503.03,2853.05,600.32,621.66,27.37,0000 0000 0000 0000 000000
2018-03-18 06:45:34,0.01,2.56,0.00,15.14,17.99,21.38,14.59,47.27,1031.75,2061.99,2557.94,2502.96,2852.73,600.35,621.77,27.42,0000 0000 0000 0000 000000
2018-03-18 06:50:36,0.06,2.56,0.00,15.17,18.02,21.41,14.50,47.22,1031.75,2061.98,2557.11,2502.28,2852.05,600.10,621.51,27.47,0000 0000 0000 0000 000000
2018-03-18 06:55:37,0.02,2.56,0.00,15.19,18.04,21.43,14.40,47.28,1031.75,2061.95,2556.66,2502.01,2851.88,599.56,620.72,27.52,0000 0000 0000 0000 000000
2018-03-18 07:00:38,0.01,2.57,0.00,15.22,18.07,21.48,14.60,47.36,1031.75,2061.80,2556.00,2501.89,2851.09,600.46,621.61,27.57,0000 0000 0000 0000 000000
2018-03-18 07:05:40,0.01,2.57,0.00,15.24,18.09,21.50,14.41,47.19,1031.75,2061.44,2555.29,2501.14,2850.96,599.51,620.69,27.62,0000 0000 0000 0000 000000
2018-03-18 07:10:41,-0.00,2.57,0.00,15.26,18.12,21.51,14.48,47.29,1031.77,2061.15,2554.91,2501.00,2850.23,599.78,620.96,27.67,0000 0000 0000 0000 000000
2018-03-18 07:15:42,0.02,2.57,0.00,15.27,18.14,21.53,14.49,47.20,1031.93,2061.04,2554.11,2500.87,2849.95,599.53,620.82,27.72,0000 0000 0000 0000 000000
2018-03-18 07:20:44,0.06,2.57,0.00,15.29,18.16,21.55,14.56,47.17,1031.93,2061.02,2553.69,2500.13,2849.23,600.14,621.33,27.77,0000 0000 0000 0000 000000
2018-03-18 07:25:45,0.01,2.57,0.00,15.30,18.18,21.60,14.56,47.19,1031.98,2061.00,2552.99,2499.98,2848.93,600.28,621.52,27.82,0000 0000 0000 0000 000000
2018-03-18 07:30:46,0.05,2.57,0.00,15.33,18.21,21.63,14.59,47.28,1032.17,2061.00,2552.27,2499.65,2848.20,599.58,620.89,27.87,0000 0000 0000 0000 000000
2018-03-18 07:35:48,0.02,2.57,0.00,15.35,18.23,21.65,14.39,47.23,1032.22,2060.99,2551.92,2499.04,2847.97,599.55,620.72,27.92,0000 0000 0000 0000 000000
2018-03-18 07:40:49,0.03,2.58,0.00,15.37,18.25,21.66,14.60,47.20,1032.23,2060.97,2551.09,2498.98,2847.23,600.58,621.92,27.97,0000 0000 0000 0000 000000
2018-03-18 07:45:50,0.05,2.58,0.00,15.38,18.27,21.69,14.55,47.15,1032.24,2060.98,2550.35,2498.45,2846.98,600.17,621.38,28.02,0000 0000 0000 0000 000000
2018-03-18 07:50:51,0.02,2.58,0.00,15.39,18.29,21.71,14.55,47.08,1032.24,2060.93,2549.89,2498.02,2846.40,600.21,621.37,28.07,0000 0000 0000 0000 000000
2018-03-18 07:55:52,0.01,2.58,0.00,15.41,18.32,21.72,14.46,47.12,1032.25,2060.84,2549.10,2497.99,2846.00,600.01,621.12,28.12,0000 0000 0000 0000 000000
2018-03-18 08:00:54,0.01,2.58,0.00,15.43,18.34,21.74,14.63,47.23,1032.26,2060.62,2548.86,2497.60,2845.66,600.41,621.30,28.17,0000 0000 0000 0000 000000
2018-03-18 08:05:55,0.01,2.58,0.00,15.44,18.36,21.76,14.56,47.24,1032.29,2060.24,2548.08,2497.06,2845.04,599.86,620.95,28.22,0000 0000 0000 0000 000000
2018-03-18 08:10:56,0.00,2.58,0.00,15.46,18.38,21.77,14.57,47.20,1032.38,2060.11,2547.78,2496.99,2844.93,600.02,621.11,28.27,0000 0000 0000 0000 000000
2018-03-18 08:15:58,0.04,2.58,0.00,15.48,18.40,21.77,14.47,47.27,1032.52,2060.05,2547.03,2496.81,2844.17,599.97,621.09,28.32,0000 0000 0000 0000 000000
2018-03-18 08:20:59,0.04,2.59,0.00,15.51,18.42,21.80,14.54,47.16,1032.73,2060.02,2546.28,2496.07,2843.97,600.13,621.35,28.37,0000 0000 0000 0000 000000
2018-03-18 08:26:00,0.02,2.59,0.00,15.56,18.44,21.79,14.53,47.16,1032.73,2060.00,2545.96,2496.00,2843.19,600.25,621.36,28.42,0000 0000 0000 0000 000000
2018-03-18 08:31:01,0.02,2.59,0.00,15.62,18.47,21.78,14.48,47.17,1032.73,2060.00,2545.23,2495.94,2843.00,599.92,620.70,28.47,0000 0000 0000 0000 000000
2018-03-18 08:36:03,0.03,2.59,0.00,15.72,18.49,21.82,14.42,46.99,1032.73,2060.00,2544.98,2495.36,2842.74,599.77,620.78,28.52,0000 0000 0000 0000 000000
2018-03-18 08:41:04,0.04,2.59,0.00,15.87,18.51,21.85,14.49,47.03,1032.73,2059.97,2544.26,2495.02,2842.04,600.01,620.38,28.57,0000 0000 0000 0000 000000
2018-03-18 08:46:05,0.00,2.59,0.00,16.01,18.53,21.89,14.47,47.14,1032.73,2059.97,2543.97,2495.00,2841.98,599.95,620.14,28.62,0000 0000 0000 0000 000000
2018-03-18 08:51:06,0.03,2.59,0.00,16.04,18.54,21.97,14.48,47.02,1032.74,2059.96,2543.31,2494.96,2841.46,600.15,620.12,28.67,0000 0000 0000 0000 000000
2018-03-18 08:56:08,0.02,2.59,0.00,15.97,18.56,22.01,14.44,46.98,1032.81,2059.85,2542.95,2494.47,2841.02,600.03,620.28,28.72,0000 0000 0000 0000 000000
2018-03-18 09:01:09,-0.00,2.60,0.00,15.85,18.57,22.01,14.60,47.05,1032.89,2059.66,2542.21,2494.05,2840.97,599.88,620.29,28.77,0000 0000 0000 0000 000000
2018-03-18 09:06:10,-0.01,2.59,0.00,15.76,18.57,22.05,14.53,47.08,1032.83,2059.34,2541.96,2494.00,2840.41,599.89,620.40,28.82,0000 0000 0000 0000 000000
2018-03-18 09:11:12,0.00,2.59,0.00,15.69,18.58,22.03,14.44,47.06,1032.77,2059.09,2541.17,2493.98,2840.01,599.74,620.53,28.87,0000 0000 0000 0000 000000
2018-03-18 09:16:13,0.01,2.60,0.00,15.63,18.59,22.06,14.57,47.03,1032.82,2059.08,2540.99,2493.88,2839.99,600.12,621.25,28.92,0000 0000 0000 0000 000000
2018-03-18 09:21:15,0.04,2.60,0.00,15.58,18.59,22.08,14.51,46.97,1033.06,2059.04,2540.59,2493.25,2839.88,599.64,620.90,28.97,0000 0000 0000 0000 000000
2018-03-18 09:26:16,0.03,2.60,0.00,15.54,18.59,22.08,14.50,47.06,1033.13,2059.05,2540.03,2493.04,2839.23,599.86,621.29,29.02,0000 0000 0000 0000 000000
2018-03-18 09:31:18,0.00,2.60,0.00,15.50,18.59,22.09,14.50,47.09,1033.16,2059.08,2539.87,2493.00,2839.02,599.80,621.47,29.07,0000 0000 0000 0000 000000
2018-03-18 09:36:19,0.01,2.60,0.00,15.49,18.59,22.07,14.65,47.17,1033.19,2059.02,2539.13,2492.99,2838.98,600.79,622.38,29.12,0000 0000 0000 0000 000000
2018-03-18 09:41:20,0.00,2.60,0.00,15.45,18.58,22.07,14.52,47.15,1033.22,2059.02,2538.99,2492.98,2838.81,599.95,621.61,29.17,0000 0000 0000 0000 000000
2018-03-18 09:46:21,0.03,2.60,0.00,15.41,18.57,22.06,14.51,47.07,1033.22,2059.01,2538.56,2492.89,2838.17,599.51,621.30,29.22,0000 0000 0000 0000 000000
2018-03-18 09:51:23,0.03,2.60,0.00,15.38,18.57,22.02,14.49,47.11,1033.22,2059.02,2538.02,2492.40,2838.01,599.22,621.02,29.27,0000 0000 0000 0000 000000
2018-03-18 09:56:24,0.02,2.60,0.00,15.35,18.57,22.05,14.53,47.21,1033.22,2059.05,2537.73,2492.07,2837.99,600.04,621.83,29.32,0000 0000 0000 0000 000000
2018-03-18 10:01:25,0.01,2.61,0.00,15.32,18.57,22.03,14.58,46.98,1033.22,2059.04,2537.07,2492.01,2837.95,600.19,622.09,29.37,0000 0000 0000 0000 000000
2018-03-18 10:06:26,0.01,2.61,0.00,15.31,18.54,22.03,14.62,47.15,1033.23,2059.03,2536.99,2492.00,2837.39,600.29,622.23,29.42,0000 0000 0000 0000 000000
2018-03-18 10:11:27,0.03,2.61,0.00,15.29,18.54,22.01,14.49,47.09,1033.23,2059.12,2536.45,2492.00,2837.07,600.04,621.91,29.47,0000 0000 0000 0000 000000
2018-03-18 10:16:29,0.00,2.61,0.00,15.27,18.53,22.00,14.61,47.06,1033.24,2059.14,2536.01,2491.97,2837.00,600.02,622.14,29.52,0000 0000 0000 0000 000000
2018-03-18 10:21:30,0.01,2.61,0.00,15.26,18.52,21.98,14.52,47.11,1033.24,2059.16,2535.93,2491.90,2836.98,599.66,621.75,29.57,0000 0000 0000 0000 000000
2018-03-18 10:26:31,0.04,2.61,0.00,15.23,18.50,21.97,14.48,47.19,1033.24,2059.37,2535.19,2491.71,2836.95,599.40,621.40,29.62,0000 0000 0000 0000 000000
2018-03-18 10:31:33,0.06,2.61,0.00,15.19,18.49,21.94,14.57,47.08,1033.24,2059.67,2534.99,2491.46,2836.71,600.50,622.80,29.67,0000 0000 0000 0000 000000
2018-03-18 10:36:34,0.05,2.62,0.00,15.17,18.48,21.90,14.58,47.23,1033.31,2059.84,2534.57,2491.08,2836.13,599.71,621.97,29.72,0000 0000 0000 0000 000000
2018-03-18 10:41:36,0.01,2.62,0.00,15.14,18.47,21.87,14.56,47.33,1033.40,2059.86,2534.02,2491.01,2836.00,599.76,622.05,29.77,0000 0000 0000 0000 000000
2018-03-18 10:46:37,0.01,2.62,0.00,15.11,18.44,21.82,14.56,47.23,1033.38,2059.91,2533.82,2491.00,2835.99,599.96,622.51,29.82,0000 0000 0000 0000 000000
2018-03-18 10:51:39,0.02,2.62,0.00,15.09,18.43,21.83,14.46,47.24,1033.35,2059.96,2533.18,2491.00,2835.96,600.08,622.60,29.87,0000 0000 0000 0000 000000
2018-03-18 10:56:40,0.02,2.62,0.00,15.07,18.41,21.83,14.57,47.28,1033.30,2059.98,2533.02,2490.98,2835.43,600.10,622.57,29.92,0000 0000 0000 0000 000000
2018-03-18 11:01:41,0.01,2.62,0.00,15.05,18.39,21.79,14.61,47.24,1033.23,2059.97,2532.82,2490.92,2835.04,599.88,622.33,29.97,0000 0000 0000 0000 000000
2018-03-18 11:06:43,0.02,2.62,0.00,15.03,18.37,21.74,14.55,47.19,1033.22,2059.98,2532.12,2490.76,2835.00,600.11,622.55,30.02,0000 0000 0000 0000 000000
2018-03-18 11:11:44,0.02,2.62,0.00,15.00,18.35,21.76,14.58,47.25,1033.24,2059.99,2531.99,2490.28,2834.99,600.02,622.63,30.08,0000 0000 0000 0000 000000
2018-03-18 11:16:46,0.01,2.62,0.00,14.97,18.33,21.74,14.58,47.27,1033.23,2059.99,2531.60,2490.12,2834.96,599.75,622.40,30.13,0000 0000 0000 0000 000000
2018-03-18 11:21:47,0.01,2.62,0.00,14.95,18.31,21.70,14.58,47.23,1033.24,2060.00,2531.03,2490.04,2834.93,599.81,622.61,30.18,0000 0000 0000 0000 000000
2018-03-18 11:26:49,0.01,2.62,0.00,14.94,18.29,21.68,14.63,47.28,1033.25,2060.01,2530.99,2490.01,2834.62,599.93,622.65,30.23,0000 0000 0000 0000 000000
2018-03-18 11:31:50,0.01,2.63,0.00,14.92,18.27,21.72,14.55,47.23,1033.24,2060.04,2530.81,2490.00,2834.20,599.85,622.58,30.28,0000 0000 0000 0000 000000
2018-03-18 11:36:51,0.02,2.63,0.00,14.89,18.24,21.59,14.62,47.20,1033.23,2060.12,2530.17,2490.01,2834.07,600.05,622.76,30.33,0000 0000 0000 0000 000000
2018-03-18 11:41:52,0.01,2.63,0.00,14.86,18.22,21.61,14.57,47.05,1033.26,2060.20,2530.01,2490.00,2834.01,599.77,622.71,30.38,0000 0000 0000 0000 000000
2018-03-18 11:46:53,0.05,2.63,0.00,14.83,18.20,21.50,14.62,47.14,1033.31,2060.65,2529.93,2490.00,2834.00,599.87,622.76,30.43,0000 0000 0000 0000 000000
2018-03-18 11:51:54,0.03,2.63,0.00,14.80,18.18,21.55,14.59,47.20,1033.27,2060.84,2529.13,2490.00,2834.00,600.23,623.30,30.48,0000 0000 0000 0000 000000
2018-03-18 11:56:56,0.00,2.63,0.00,14.75,18.16,21.50,14.57,47.18,1033.24,2060.90,2528.99,2489.98,2833.96,599.52,622.74,30.53,0000 0000 0000 0000 000000
2018-03-18 12:01:57,0.04,2.63,0.00,14.71,18.14,21.49,14.53,47.17,1033.31,2060.96,2528.49,2489.95,2833.63,599.58,622.86,30.58,0000 0000 0000 0000 000000
2018-03-18 12:06:58,0.01,2.64,0.00,14.69,18.12,21.47,14.62,47.18,1033.35,2060.98,2528.01,2489.84,2833.17,600.06,623.35,30.63,0000 0000 0000 0000 000000
2018-03-18 12:12:00,0.01,2.64,0.00,14.67,18.10,21.47,14.59,47.38,1033.33,2060.98,2527.97,2489.58,2833.07,599.69,623.02,30.68,0000 0000 0000 0000 000000
2018-03-18 12:17:01,0.03,2.64,0.00,14.64,18.08,21.47,14.56,47.28,1033.34,2060.99,2527.42,2489.39,2833.02,599.66,623.08,30.73,0000 0000 0000 0000 000000
2018-03-18 12:22:02,0.01,2.64,0.00,14.62,18.07,21.44,14.50,47.25,1033.29,2060.99,2527.01,2489.17,2833.00,599.82,623.21,30.78,0000 0000 0000 0000 000000
2018-03-18 12:27:04,0.01,2.64,0.00,14.60,18.04,21.38,14.66,47.33,1033.29,2061.00,2526.76,2489.05,2833.00,599.71,623.25,30.83,0000 0000 0000 0000 000000
2018-03-18 12:32:05,0.01,2.64,0.00,14.57,18.03,21.41,14.57,47.23,1033.33,2061.01,2526.11,2489.02,2832.98,599.74,623.34,30.88,0000 0000 0000 0000 000000
2018-03-18 12:37:07,0.01,2.64,0.00,14.54,18.01,21.29,14.56,47.25,1033.29,2061.02,2526.01,2489.00,2832.87,599.63,623.34,30.93,0000 0000 0000 0000 000000
2018-03-18 12:42:08,0.01,2.64,0.00,14.51,17.99,21.39,14.55,47.23,1033.25,2061.05,2525.93,2489.00,2832.42,599.72,623.38,30.98,0000 0000 0000 0000 000000
2018-03-18 12:47:09,0.03,2.64,0.00,14.49,17.98,21.37,14.58,47.34,1033.26,2061.09,2525.17,2489.00,2832.09,599.65,623.36,31.03,0000 0000 0000 0000 000000
2018-03-18 12:52:10,0.03,2.64,0.00,14.46,17.96,21.27,14.59,47.27,1033.26,2061.26,2525.01,2488.99,2832.01,600.16,623.81,31.08,0000 0000 0000 0000 000000
2018-03-18 12:57:12,0.05,2.65,0.00,14.44,17.94,21.29,14.58,47.29,1033.24,2061.71,2524.99,2488.99,2832.00,599.76,623.60,31.13,0000 0000 0000 0000 000000